Weather History for Longville, MN

Change the Weather History Date:

Monday, February 11, 2013

  Actual Average (KPWC) Record (KPWC)
Temperature  
Mean Temperature 14 °F -  
Max Temperature 24 °F 24 °F 48 °F (2002)
Min Temperature 1 °F 4 °F -27 °F (2014)
Degree Days  
Heating Degree Days 52    
Moisture  
Dew Point 15 °F    
Average Humidity 86    
Maximum Humidity 93    
Minimum Humidity 79    
Precipitation  
Precipitation 0.00 in - - ()
Sea Level Pressure  
Sea Level Pressure 29.74 in    
Wind  
Wind Speed 8 mph (WNW)    
Max Wind Speed 15 mph    
Max Gust Speed 24 mph    
Visibility 7 miles    
Events Snow    
Averages and records for this station are not official NWS values.
T = Trace of Precipitation, MM = Missing Value Source: NWS Daily Summary

Daily Weather History Graph

Daily Weather History Graph

Search for Another Location

Airport:

Trip Planner

Search our weather history database for the weather conditions in past years. The results will help you decide how hot, cold, wet, or windy it might be!

Date:

Astronomy

Feb. 11, 2013 Rise Set
Actual Time 7:27 AM CST 5:35 PM CST
Civil Twilight 6:55 AM CST 6:07 PM CST
Nautical Twilight 6:19 AM CST 6:43 PM CST
Astronomical Twilight 5:44 AM CST 7:18 PM CST
Moon 7:42 AM CST (2/11) 7:44 PM CST (2/11)
Length of Visible Light 11h 11m
Length of Day
10h 08m
Waxing Crescent, 3% of the Moon is Illuminated
Feb 11
Waxing Crescent
Feb 17
First Quarter
Feb 25
Full
Mar 4
Last Quarter
Mar 11
New

Hourly Weather History & Observations

Time (CST) Temp. Windchill Dew Point Humidity Pressure Visibility Wind Dir Wind Speed Gust Speed Precip Events Conditions
12:16 AM 24.8 °F 16.1 °F 21.2 °F 86% 29.45 in 4.0 mi NNW 8.1 mph - N/A Snow Light Snow
12:36 AM 24.8 °F 16.9 °F 21.2 °F 86% 29.45 in 3.0 mi NNW 6.9 mph - N/A Snow Light Snow
12:56 AM 24.8 °F 16.1 °F 21.2 °F 86% 29.46 in 4.0 mi NNW 8.1 mph - N/A Snow Light Snow
1:16 AM 24.8 °F 16.1 °F 21.2 °F 86% 29.46 in 1.8 mi NNW 8.1 mph - N/A Snow Light Snow
1:36 AM 24.8 °F 15.3 °F 21.2 °F 86% 29.47 in 1.8 mi NNW 9.2 mph - N/A Snow Light Snow
1:56 AM 23.0 °F 13.9 °F 21.2 °F 93% 29.48 in 2.5 mi NNW 8.1 mph - N/A Snow Light Snow
2:16 AM 23.0 °F 14.7 °F 21.2 °F 93% 29.49 in 2.0 mi NNW 6.9 mph - N/A Snow Light Snow
2:36 AM 23.0 °F 14.7 °F 21.2 °F 93% 29.50 in 2.0 mi NNW 6.9 mph - N/A Snow Light Snow
2:56 AM 23.0 °F 13.9 °F 19.4 °F 86% 29.51 in 1.5 mi NW 8.1 mph 18.4 mph N/A Snow Light Snow
3:16 AM 21.2 °F 12.6 °F 19.4 °F 93% 29.52 in 1.8 mi NNW 6.9 mph 16.1 mph N/A Snow Light Snow
3:36 AM 21.2 °F 11.7 °F 19.4 °F 93% 29.52 in 2.0 mi NW 8.1 mph - N/A Snow Light Snow
3:56 AM 21.2 °F 11.7 °F 19.4 °F 93% 29.54 in 3.0 mi NNW 8.1 mph - N/A Snow Light Snow
4:16 AM 21.2 °F 10.9 °F 19.4 °F 93% 29.55 in 7.0 mi NW 9.2 mph 18.4 mph N/A Snow Light Snow
4:36 AM 21.2 °F 12.6 °F 19.4 °F 93% 29.56 in 1.8 mi NNW 6.9 mph - N/A Snow Light Snow
4:56 AM 21.2 °F 10.9 °F 19.4 °F 93% 29.57 in 2.0 mi NW 9.2 mph - N/A Snow Light Snow
5:16 AM 21.2 °F 10.1 °F 19.4 °F 93% 29.58 in 1.5 mi NW 10.4 mph 17.3 mph N/A Snow Light Snow
5:36 AM 21.2 °F 10.9 °F 17.6 °F 86% 29.59 in 1.8 mi NW 9.2 mph 17.3 mph N/A Snow Light Snow
5:56 AM 19.4 °F 8.6 °F 17.6 °F 93% 29.61 in 3.0 mi NW 9.2 mph - N/A Snow Light Snow
6:16 AM 19.4 °F 8.6 °F 17.6 °F 93% 29.62 in 3.0 mi NW 9.2 mph 17.3 mph N/A Snow Light Snow
6:36 AM 19.4 °F 9.5 °F 17.6 °F 93% 29.63 in 2.5 mi NW 8.1 mph - N/A Snow Light Snow
6:56 AM 19.4 °F 8.6 °F 17.6 °F 93% 29.64 in 5.0 mi NW 9.2 mph - N/A Snow Light Snow
7:16 AM 19.4 °F 7.9 °F 15.8 °F 86% 29.65 in 7.0 mi NW 10.4 mph 18.4 mph N/A Snow Light Snow
7:36 AM 19.4 °F 9.5 °F 15.8 °F 86% 29.66 in 7.0 mi NW 8.1 mph - N/A Snow Light Snow
7:56 AM 19.4 °F 9.5 °F 17.6 °F 93% 29.67 in 1.5 mi NW 8.1 mph 18.4 mph N/A Snow Light Snow
8:16 AM 19.4 °F 9.5 °F 17.6 °F 93% 29.68 in 2.5 mi NNW 8.1 mph 16.1 mph N/A Snow Light Snow
8:36 AM 19.4 °F 10.4 °F 15.8 °F 86% 29.68 in 4.0 mi NW 6.9 mph - N/A Snow Light Snow
8:56 AM 19.4 °F 8.6 °F 15.8 °F 86% 29.69 in 7.0 mi NW 9.2 mph 16.1 mph N/A   Scattered Clouds
9:16 AM 19.4 °F 6.0 °F 15.8 °F 86% 29.70 in 10.0 mi NW 13.8 mph 18.4 mph N/A   Mostly Cloudy
9:36 AM 19.4 °F 8.6 °F 15.8 °F 86% 29.71 in 10.0 mi NW 9.2 mph 16.1 mph N/A   Mostly Cloudy
9:56 AM 21.2 °F 11.7 °F 15.8 °F 80% 29.72 in 10.0 mi NW 8.1 mph 17.3 mph N/A   Scattered Clouds
10:16 AM 21.2 °F 9.5 °F 15.8 °F 80% 29.73 in 10.0 mi WNW 11.5 mph 19.6 mph N/A   Overcast
10:36 AM 21.2 °F 10.1 °F 15.8 °F 80% 29.74 in 10.0 mi NW 10.4 mph 19.6 mph N/A   Overcast
10:56 AM 21.2 °F 10.9 °F 15.8 °F 80% 29.75 in 7.0 mi NW 9.2 mph 24.2 mph N/A   Overcast
11:16 AM 21.2 °F 7.8 °F 15.8 °F 80% 29.76 in 10.0 mi WNW 15.0 mph 20.7 mph N/A   Overcast
11:36 AM 21.2 °F 10.1 °F 15.8 °F 80% 29.77 in 10.0 mi WNW 10.4 mph 17.3 mph N/A   Overcast
11:56 AM 21.2 °F 8.3 °F 15.8 °F 80% 29.78 in 10.0 mi NW 13.8 mph 19.6 mph N/A   Overcast
12:16 PM 21.2 °F 10.9 °F 15.8 °F 80% 29.78 in 10.0 mi NW 9.2 mph 19.6 mph N/A   Overcast
12:36 PM 21.2 °F 10.9 °F 15.8 °F 80% 29.79 in 10.0 mi WNW 9.2 mph - N/A   Overcast
12:56 PM 21.2 °F 8.3 °F 15.8 °F 80% 29.79 in 10.0 mi WNW 13.8 mph 23.0 mph N/A   Overcast
1:16 PM 21.2 °F 8.9 °F 15.8 °F 80% 29.80 in 10.0 mi WNW 12.7 mph 19.6 mph N/A   Overcast
1:36 PM 21.2 °F 10.9 °F 15.8 °F 80% 29.81 in 10.0 mi West 9.2 mph 18.4 mph N/A   Overcast
1:56 PM 21.2 °F 7.8 °F 15.8 °F 80% 29.82 in 10.0 mi WNW 15.0 mph 21.9 mph N/A   Overcast
2:16 PM 21.2 °F 9.5 °F 15.8 °F 80% 29.82 in 10.0 mi WNW 11.5 mph 20.7 mph N/A   Overcast
2:36 PM 21.2 °F 9.5 °F 15.8 °F 80% 29.83 in 10.0 mi NW 11.5 mph 18.4 mph N/A   Overcast
2:56 PM 21.2 °F 9.5 °F 15.8 °F 80% 29.84 in 10.0 mi WNW 11.5 mph 18.4 mph N/A   Overcast
3:16 PM 21.2 °F 10.9 °F 15.8 °F 80% 29.84 in 10.0 mi WNW 9.2 mph 20.7 mph N/A Snow Light Snow
3:36 PM 21.2 °F 11.7 °F 15.8 °F 80% 29.85 in 10.0 mi WNW 8.1 mph - N/A Snow Light Snow
3:56 PM 19.4 °F 9.5 °F 15.8 °F 86% 29.85 in 7.0 mi WNW 8.1 mph - N/A Snow Light Snow
4:56 PM 19.4 °F 9.5 °F 14.0 °F 80% 29.87 in 7.0 mi West 8.1 mph - N/A Snow Light Snow
5:16 PM 19.4 °F 12.8 °F 14.0 °F 80% 29.88 in 7.0 mi WNW 4.6 mph - N/A Snow Light Snow
5:36 PM 19.4 °F 10.4 °F 14.0 °F 80% 29.88 in 10.0 mi WNW 6.9 mph - N/A Snow Light Snow
5:56 PM 19.4 °F 9.5 °F 14.0 °F 80% 29.89 in 10.0 mi West 8.1 mph - N/A Snow Light Snow
6:16 PM 19.4 °F 11.5 °F 14.0 °F 80% 29.89 in 10.0 mi WNW 5.8 mph - N/A Snow Light Snow
6:36 PM 17.6 °F 8.2 °F 12.2 °F 79% 29.90 in 10.0 mi West 6.9 mph - N/A Snow Light Snow
6:56 PM 17.6 °F 6.4 °F 12.2 °F 79% 29.91 in 10.0 mi West 9.2 mph - N/A Snow Light Snow
7:16 PM 17.6 °F 9.3 °F 12.2 °F 79% 29.91 in 10.0 mi West 5.8 mph - N/A Snow Light Snow
7:36 PM 17.6 °F 6.4 °F 12.2 °F 79% 29.92 in 10.0 mi West 9.2 mph - N/A Snow Light Snow
7:56 PM 15.8 °F 6.1 °F 10.4 °F 79% 29.93 in 10.0 mi West 6.9 mph - N/A Snow Light Snow
8:16 PM 15.8 °F 6.1 °F 10.4 °F 79% 29.92 in 10.0 mi West 6.9 mph - N/A Snow Light Snow
8:36 PM 15.8 °F 8.6 °F 10.4 °F 79% 29.92 in 10.0 mi West 4.6 mph - N/A Snow Light Snow
8:56 PM 14.0 °F 6.5 °F 10.4 °F 86% 29.93 in 10.0 mi West 4.6 mph - N/A Snow Light Snow
9:16 PM 12.2 °F 6.1 °F 10.4 °F 92% 29.93 in 10.0 mi WSW 3.5 mph - N/A   Scattered Clouds
9:36 PM 10.4 °F 2.2 °F 8.6 °F 92% 29.93 in 10.0 mi West 4.6 mph - N/A   Clear
9:56 PM 8.6 °F 2.0 °F 6.8 °F 92% 29.93 in 10.0 mi West 3.5 mph - N/A   Clear
10:16 PM 6.8 °F -0.1 °F 5.0 °F 92% 29.94 in 10.0 mi WSW 3.5 mph - N/A   Clear
10:36 PM 5.0 °F - 3.2 °F 92% 29.94 in 10.0 mi Calm Calm - N/A   Clear
10:56 PM 5.0 °F - 1.4 °F 85% 29.93 in 7.0 mi Calm Calm - N/A   Clear
11:16 PM 3.2 °F -4.2 °F 1.4 °F 92% 29.93 in 10.0 mi SW 3.5 mph - N/A   Clear
11:36 PM 3.2 °F - 1.4 °F 92% 29.93 in 10.0 mi Calm Calm - N/A   Clear
11:56 PM 1.4 °F -6.2 °F -0.4 °F 92% 29.92 in 10.0 mi SW 3.5 mph - N/A   Clear